N5CSU Weather Reports


Display with metric or nautical units.
time (UTC)temp
F
wind
direction
speed
MPH
gust
MPH
rain 1hr
in
rain 24hr
in
rain mn
in
humidity
%
barometer
mb
20260902094959 77 191 0.0 0.0 0.00 0.00 0.00 84 1015.7
20260902094455 78 197 0.0 0.0 0.00 0.00 0.00 83 1015.6
20260902093955 79 198 0.0 0.0 0.00 0.00 0.00 83 1015.7
20260902093456 80 199 0.0 0.0 0.00 0.00 0.00 80 1015.6
20260902092955 80 201 0.0 0.0 0.00 0.00 0.00 75 1015.5
20260902092451 80 201 0.0 0.0 0.00 0.00 0.00 75 1015.6
20260902091950 80 201 0.0 0.0 0.00 0.00 0.00 74 1015.4
20260902091445 80 201 0.0 0.0 0.00 0.00 0.00 74 1015.4
20260902090942 80 200 0.0 0.0 0.00 0.00 0.00 73 1015.5
20260902090437 81 200 0.0 0.0 0.00 0.00 0.00 73 1015.4
20260902085936 81 200 0.0 0.0 0.00 0.00 0.00 72 1015.5
20260902085431 81 200 0.0 0.0 0.00 0.00 0.00 72 1015.2
20260902084926 81 199 0.0 0.0 0.00 0.00 0.00 72 1015.3
20260902084423 81 199 0.0 0.0 0.00 0.00 0.00 72 1015.4
20260902083919 82 199 0.0 0.0 0.00 0.00 0.00 71 1015.2
20260902083418 82 199 0.0 0.0 0.00 0.00 0.00 71 1015.3
20260902082913 82 201 0.0 0.0 0.00 0.00 0.00 70 1015.3
20260902082403 82 201 0.0 0.0 0.00 0.00 0.00 70 1015.5
20260902081859 82 202 0.0 0.0 0.00 0.00 0.00 70 1015.4
20260902081356 82 201 0.0 0.0 0.00 0.00 0.00 69 1015.4
20260902080856 83 202 0.0 0.0 0.00 0.00 0.00 69 1015.2
20260902080352 83 197 0.0 0.0 0.00 0.00 0.00 69 1015.3
20260902075851 83 201 0.0 0.0 0.00 0.00 0.00 68 1015.4
20260902075348 83 203 0.0 0.0 0.00 0.00 0.00 67 1015.5
20260902074843 84 198 0.0 0.0 0.00 0.00 0.00 67 1015.4
20260902074338 84 203 0.0 0.0 0.00 0.00 0.00 67 1015.4
20260902073833 84 194 0.0 0.0 0.00 0.00 0.00 66 1015.4
20260902073330 84 177 0.0 0.0 0.00 0.00 0.00 66 1015.4
20260902072825 84 205 0.0 0.0 0.00 0.00 0.00 66 1015.2
20260902072320 84 205 0.0 0.0 0.00 0.00 0.00 66 1015.5
20260902071817 84 190 0.0 0.0 0.00 0.00 0.00 66 1015.4
20260902071312 84 196 0.0 0.0 0.00 0.00 0.00 66 1015.5
20260902070808 84 205 0.0 0.0 0.00 0.00 0.00 66 1015.4
20260902070307 85 194 0.0 0.0 0.00 0.00 0.00 65 1015.6
20260902065807 85 193 0.0 0.0 0.00 0.00 0.00 65 1015.2
20260902065302 85 198 0.0 0.0 0.00 0.00 0.00 65 1015.5
20260902064757 85 190 0.0 0.0 0.00 0.00 0.00 65 1015.4
20260902064253 85 215 0.0 0.0 0.00 0.00 0.00 66 1015.5
20260902063749 85 179 0.0 0.0 0.00 0.00 0.00 65 1015.5
20260902063243 85 191 0.0 0.0 0.00 0.00 0.00 65 1015.6
20260902062738 85 188 0.0 0.0 0.00 0.00 0.00 64 1015.4
20260902062233 85 194 0.0 0.0 0.00 0.00 0.00 64 1015.5
20260902061731 86 201 0.0 0.0 0.00 0.00 0.00 64 1015.6
20260902061227 86 200 0.0 0.0 0.00 0.00 0.00 64 1015.7
20260902060724 86 189 0.0 0.0 0.00 0.00 0.00 65 1015.5
20260902060219 86 188 0.0 0.0 0.00 0.00 0.00 65 1015.5
20260902055715 86 206 0.0 0.0 0.00 0.00 0.00 65 1015.4
20260902055211 86 209 0.0 0.0 0.00 0.00 0.00 65 1015.3
20260902054706 86 204 0.0 0.0 0.00 0.00 0.00 66 1015.4
20260902054201 86 204 0.0 0.0 0.00 0.00 0.00 66 1015.4
20260902053657 86 207 0.0 0.0 0.00 0.00 0.00 66 1015.5
20260902053156 86 202 0.0 0.0 0.00 0.00 0.00 66 1015.3
20260902052655 86 206 0.0 0.0 0.00 0.00 0.00 66 1015.4
20260902052151 86 197 0.0 0.0 0.00 0.00 0.00 66 1015.3
20260902051650 86 197 0.0 0.0 0.00 0.00 0.00 65 1015.4
20260902051145 87 198 0.0 0.0 0.00 0.00 0.00 65 1015.3
20260902050639 87 197 0.0 0.0 0.00 0.00 0.00 64 1015.3
20260902050135 87 194 0.0 0.0 0.00 0.00 0.00 64 1015.4
20260902045630 87 197 0.0 0.0 0.00 0.00 0.00 64 1015.4
20260902045126 87 24 0.0 0.0 0.00 0.00 0.00 64 1015.5
20260902044625 87 198 0.0 0.0 0.00 0.00 0.00 63 1015.3
20260902044122 87 182 0.0 0.0 0.00 0.00 0.00 63 1015.2
20260902043617 87 256 0.0 0.0 0.00 0.00 0.00 62 1015.3
20260902043112 87 159 0.0 1.0 0.00 0.00 0.00 62 1015.4
20260902042611 88 200 0.0 0.0 0.00 0.00 0.00 62 1015.3
20260902042107 88 204 0.0 0.0 0.00 0.00 0.00 62 1015.2
20260902041606 88 185 0.0 0.0 0.00 0.00 0.00 61 1015.3
20260902041101 88 170 0.0 0.0 0.00 0.00 0.00 60 1015.4
20260902040556 88 218 0.0 0.0 0.00 0.00 0.00 60 1015.3
20260902040051 89 176 0.0 0.0 0.00 0.00 0.00 59 1015.2
20260902035549 89 204 0.0 0.0 0.00 0.00 0.00 58 1015.1
20260902035045 89 114 0.0 0.0 0.00 0.00 0.00 58 1015.0
20260902034544 89 193 0.0 0.0 0.00 0.00 0.00 57 1015.1
20260902034043 87 182 0.0 0.0 0.00 0.00 0.00 58 1015.2
20260902033543 87 206 0.0 0.0 0.00 0.00 0.00 61 1014.9
20260902033038 87 200 0.0 0.0 0.00 0.00 0.00 60 1014.8
20260902032536 88 202 0.0 0.0 0.00 0.00 0.00 59 1014.6
20260902032031 88 202 0.0 0.0 0.00 0.00 0.00 58 1014.4
20260902031526 88 202 0.0 0.0 0.00 0.00 0.00 58 1014.5
20260902031022 89 202 0.0 0.0 0.00 0.00 0.00 57 1014.4
20260902030517 89 202 0.0 0.0 0.00 0.00 0.00 57 1014.4
20260902030016 89 202 0.0 0.0 0.00 0.00 0.00 56 1014.2
20260902025511 89 202 0.0 0.0 0.00 0.00 0.00 56 1014.1
20260902025006 90 204 0.0 0.0 0.00 0.00 0.00 55 1014.1
20260902024501 90 198 0.0 0.0 0.00 0.00 0.00 55 1014.2
20260902023955 90 198 0.0 0.0 0.00 0.00 0.00 54 1014.2
20260902023452 91 198 0.0 0.0 0.00 0.00 0.00 53 1014.0
20260902022951 91 202 0.0 0.0 0.00 0.00 0.00 53 1014.0
20260902022446 91 202 0.0 0.0 0.00 0.00 0.00 53 1013.8
20260902021942 91 189 0.0 0.0 0.00 0.00 0.00 52 1013.8
20260902021437 91 200 0.0 0.0 0.00 0.00 0.00 52 1013.8
20260902020932 91 196 0.0 0.0 0.00 0.00 0.00 52 1013.5
20260902020428 91 197 0.0 0.0 0.00 0.00 0.00 52 1013.7
20260902015923 91 197 0.0 0.0 0.00 0.00 0.00 53 1013.6
20260902015420 91 199 0.0 0.0 0.00 0.00 0.00 52 1013.4
20260902014915 91 197 0.0 0.0 0.00 0.00 0.00 52 1013.4
20260902014411 91 197 0.0 0.0 0.00 0.00 0.00 52 1013.5
20260902013910 91 195 0.0 0.0 0.00 0.00 0.00 51 1013.2
20260902013406 91 189 0.0 0.0 0.00 0.00 0.00 52 1013.2
20260902012901 90 204 0.0 0.0 0.00 0.00 0.00 53 1013.3
20260902012357 90 191 0.0 0.0 0.00 0.00 0.00 55 1013.3
20260902011852 90 203 0.0 0.0 0.00 0.00 0.00 54 1013.1
20260902011346 91 203 0.0 0.0 0.00 0.00 0.00 53 1013.1
20260902010840 91 203 0.0 0.0 0.00 0.00 0.00 53 1013.0
20260902010335 92 203 0.0 0.0 0.00 0.00 0.00 52 1012.8
20260902005834 92 202 0.0 0.0 0.00 0.00 0.00 51 1012.9
20260902005328 93 202 0.0 0.0 0.00 0.00 0.00 50 1013.1
20260902004824 93 202 0.0 0.0 0.00 0.00 0.00 50 1013.0
20260902004319 93 197 0.0 0.0 0.00 0.00 0.00 49 1013.0
20260902003814 94 187 0.0 0.0 0.00 0.00 0.00 49 1013.0
20260902003309 94 202 0.0 0.0 0.00 0.00 0.00 49 1012.9
20260902002805 94 202 0.0 0.0 0.00 0.00 0.00 48 1012.9
20260902002306 95 200 0.0 0.0 0.00 0.00 0.00 47 1013.0
20260902001800 95 195 0.0 0.0 0.00 0.00 0.00 47 1013.0
20260902001255 95 196 0.0 0.0 0.00 0.00 0.00 47 1013.1
20260902000755 95 193 0.0 0.0 0.00 0.00 0.00 46 1013.0
20260902000250 95 192 0.0 0.0 0.00 0.00 0.00 47 1013.1
20260901235750 95 190 0.0 0.0 0.00 0.00 0.00 47 1013.2
20260901235245 96 193 0.0 0.0 0.00 0.00 0.00 46 1013.2
20260901234744 96 178 0.0 0.0 0.00 0.00 0.00 46 1013.1
20260901234239 96 190 0.0 0.0 0.00 0.00 0.00 46 1013.2
20260901233733 96 187 0.0 0.0 0.00 0.00 0.00 45 1013.3
20260901233230 96 198 0.0 0.0 0.00 0.00 0.00 46 1013.3
20260901232724 96 190 0.0 0.0 0.00 0.00 0.00 45 1013.5
20260901232219 96 80 0.0 0.0 0.00 0.00 0.00 45 1013.5
20260901231716 96 200 0.0 0.0 0.00 0.00 0.00 45 1013.4
20260901231212 96 194 0.0 0.0 0.00 0.00 0.00 45 1013.4
20260901230707 96 191 0.0 0.0 0.00 0.00 0.00 45 1013.4
20260901230207 97 195 0.0 0.0 0.00 0.00 0.00 44 1013.2
20260901225702 97 193 0.0 0.0 0.00 0.00 0.00 44 1013.4
20260901225157 97 189 0.0 0.0 0.00 0.00 0.00 45 1013.5
20260901224653 97 184 0.0 0.0 0.00 0.00 0.00 44 1013.3
20260901224149 98 191 0.0 0.0 0.00 0.00 0.00 44 1013.4
20260901223644 98 189 0.0 0.0 0.00 0.00 0.00 43 1013.5
20260901223139 98 195 0.0 0.0 0.00 0.00 0.00 44 1013.5
20260901222635 97 199 0.0 0.0 0.00 0.00 0.00 44 1013.6
20260901222131 96 190 0.0 0.0 0.00 0.00 0.00 45 1013.5
20260901221627 97 88 0.0 0.0 0.00 0.00 0.00 45 1013.6
20260901221123 97 192 0.0 0.0 0.00 0.00 0.00 45 1013.7
20260901220621 98 192 0.0 0.0 0.00 0.00 0.00 43 1013.8
20260901220122 98 201 0.0 0.0 0.00 0.00 0.00 43 1013.5
20260901215620 97 191 0.0 0.0 0.00 0.00 0.00 44 1013.5
20260901215120 96 188 0.0 0.0 0.00 0.00 0.00 46 1013.7
20260901214618 96 190 0.0 0.0 0.00 0.00 0.00 45 1013.8
20260901214113 97 201 0.0 0.0 0.00 0.00 0.00 45 1013.6
20260901213612 97 195 0.0 0.0 0.00 0.00 0.00 45 1013.7
20260901213107 97 193 0.0 0.0 0.00 0.00 0.00 44 1014.0
20260901212607 97 184 0.0 0.0 0.00 0.00 0.00 44 1013.9
20260901212103 97 190 0.0 0.0 0.00 0.00 0.00 44 1014.0
20260901211558 97 182 0.0 0.0 0.00 0.00 0.00 44 1014.0
20260901211055 97 258 0.0 0.0 0.00 0.00 0.00 44 1013.9
20260901210549 97 178 0.0 0.0 0.00 0.00 0.00 44 1014.2
20260901210046 98 193 0.0 0.0 0.00 0.00 0.00 43 1014.1
20260901205542 98 198 0.0 0.0 0.00 0.00 0.00 42 1014.1
20260901205041 97 220 0.0 0.0 0.00 0.00 0.00 43 1014.0
20260901204538 98 183 0.0 0.0 0.00 0.00 0.00 43 1014.2
20260901204032 98 180 0.0 0.0 0.00 0.00 0.00 43 1014.1
20260901203526 98 208 0.0 0.0 0.00 0.00 0.00 42 1014.2
20260901203022 98 205 0.0 0.0 0.00 0.00 0.00 43 1014.2
20260901202516 99 337 0.0 0.0 0.00 0.00 0.00 43 1014.3
20260901202012 98 200 0.0 0.0 0.00 0.00 0.00 43 1014.3
20260901201508 97 242 0.0 0.0 0.00 0.00 0.00 45 1014.4
20260901201002 97 195 0.0 0.0 0.00 0.00 0.00 44 1014.4
20260901200456 98 183 0.0 0.0 0.00 0.00 0.00 43 1014.6
20260901195955 97 190 0.0 0.0 0.00 0.00 0.00 44 1014.6
20260901195454 99 275 0.0 1.0 0.00 0.00 0.00 44 1014.6
20260901194949 99 187 0.0 0.0 0.00 0.00 0.00 42 1014.7
20260901194444 99 193 0.0 0.0 0.00 0.00 0.00 43 1014.7
20260901193940 100 194 0.0 0.0 0.00 0.00 0.00 42 1014.7
20260901193439 99 222 0.0 1.0 0.00 0.00 0.00 41 1014.8
20260901192938 99 176 0.0 0.0 0.00 0.00 0.00 43 1014.9
20260901192435 99 282 0.0 0.0 0.00 0.00 0.00 42 1015.1
20260901191926 99 357 0.0 0.0 0.00 0.00 0.00 42 1015.0
20260901191421 99 194 0.0 0.0 0.00 0.00 0.00 42 1015.1
20260901190917 99 196 0.0 0.0 0.00 0.00 0.00 43 1015.2
20260901190417 99 222 0.0 0.0 0.00 0.00 0.00 42 1015.3
20260901185915 99 179 0.0 1.0 0.00 0.00 0.00 43 1015.3
20260901185414 99 191 0.0 0.0 0.00 0.00 0.00 42 1015.3
20260901184909 99 178 0.0 0.0 0.00 0.00 0.00 41 1015.5
20260901184404 98 179 0.0 0.0 0.00 0.00 0.00 42 1015.6
20260901183904 99 10 1.0 1.0 0.00 0.00 0.00 40 1015.6
20260901183404 99 198 0.0 0.0 0.00 0.00 0.00 42 1016.0
20260901182900 97 199 0.0 0.0 0.00 0.00 0.00 45 1016.1
20260901182355 97 177 0.0 0.0 0.00 0.00 0.00 44 1016.0
20260901181850 98 206 0.0 0.0 0.00 0.00 0.00 44 1016.3
20260901181345 97 201 0.0 0.0 0.00 0.00 0.00 45 1016.3
20260901180844 98 54 0.0 0.0 0.00 0.00 0.00 44 1016.4
20260901180343 97 188 0.0 0.0 0.00 0.00 0.00 46 1016.6
20260901175842 96 202 0.0 0.0 0.00 0.00 0.00 47 1016.7
20260901175337 95 207 0.0 0.0 0.00 0.00 0.00 47 1016.6
20260901174832 95 230 0.0 0.0 0.00 0.00 0.00 47 1016.8
20260901174328 97 219 0.0 0.0 0.00 0.00 0.00 46 1017.1
20260901173823 98 199 0.0 0.0 0.00 0.00 0.00 46 1016.9
20260901173318 97 212 0.0 0.0 0.00 0.00 0.00 46 1017.0
20260901172815 97 196 0.0 0.0 0.00 0.00 0.00 47 1017.2
20260901172314 97 198 0.0 0.0 0.00 0.00 0.00 47 1017.2
20260901171811 96 58 1.0 1.0 0.00 0.00 0.00 48 1017.1
20260901171310 97 214 0.0 0.0 0.00 0.00 0.00 47 1017.2
20260901170804 96 175 0.0 1.0 0.00 0.00 0.00 47 1017.0
20260901170259 95 72 0.0 0.0 0.00 0.00 0.00 50 1017.3
20260901165758 95 192 0.0 0.0 0.00 0.00 0.00 51 1017.3
20260901165253 94 229 0.0 0.0 0.00 0.00 0.00 50 1017.3
20260901164749 95 197 0.0 0.0 0.00 0.00 0.00 49 1017.5
20260901164245 97 207 0.0 0.0 0.00 0.00 0.00 47 1017.6
20260901163739 97 189 0.0 0.0 0.00 0.00 0.00 48 1017.6
20260901163239 97 204 0.0 0.0 0.00 0.00 0.00 47 1017.7
20260901162734 96 191 0.0 0.0 0.00 0.00 0.00 49 1017.6
20260901162233 96 200 0.0 0.0 0.00 0.00 0.00 50 1017.5
20260901161732 96 198 0.0 1.0 0.00 0.00 0.00 50 1017.8
20260901161227 96 204 0.0 0.0 0.00 0.00 0.00 50 1017.8
20260901160723 95 210 0.0 0.0 0.00 0.00 0.00 52 1017.6
20260901160218 94 220 0.0 1.0 0.00 0.00 0.00 53 1017.6
20260901155717 93 239 0.0 0.0 0.00 0.00 0.00 53 1017.5
20260901155213 92 187 1.0 1.0 0.00 0.00 0.00 55 1017.7
20260901154708 92 54 1.0 1.0 0.00 0.00 0.00 56 1017.6
20260901154203 92 210 0.0 0.0 0.00 0.00 0.00 56 1017.9
20260901153658 91 221 0.0 0.0 0.00 0.00 0.00 57 1017.7
20260901153157 91 186 0.0 0.0 0.00 0.00 0.00 58 1017.5
20260901152652 90 182 0.0 0.0 0.00 0.00 0.00 58 1017.6
20260901152150 90 201 0.0 0.0 0.00 0.00 0.00 59 1017.6
20260901151646 90 203 0.0 0.0 0.00 0.00 0.00 59 1017.6
20260901151140 90 208 0.0 0.0 0.00 0.00 0.00 60 1017.6
20260901150639 89 227 0.0 0.0 0.00 0.00 0.00 61 1017.7
20260901150137 89 197 0.0 0.0 0.00 0.00 0.00 62 1017.5
20260901145636 89 214 0.0 0.0 0.00 0.00 0.00 62 1017.8
20260901145135 89 198 0.0 0.0 0.00 0.00 0.00 63 1017.9
20260901144631 88 198 0.0 0.0 0.00 0.00 0.00 65 1017.8
20260901144126 87 196 0.0 0.0 0.00 0.00 0.00 65 1017.9
20260901143621 87 190 0.0 0.0 0.00 0.00 0.00 66 1017.9
20260901143118 87 186 0.0 0.0 0.00 0.00 0.00 66 1017.8
20260901142614 87 195 0.0 0.0 0.00 0.00 0.00 67 1017.9
20260901142113 86 185 0.0 0.0 0.00 0.00 0.00 67 1017.8
20260901141608 86 211 0.0 0.0 0.00 0.00 0.00 67 1017.9
20260901141103 86 203 0.0 0.0 0.00 0.00 0.00 68 1017.7
20260901140602 86 201 0.0 0.0 0.00 0.00 0.00 68 1017.6
20260901135600 85 193 0.0 0.0 0.00 0.00 0.00 70 1017.8
20260901135051 84 191 0.0 0.0 0.00 0.00 0.00 70 1017.8
20260901134546 84 213 0.0 0.0 0.00 0.00 0.00 70 1017.8
20260901134041 84 209 0.0 0.0 0.00 0.00 0.00 70 1017.9
20260901133540 83 191 0.0 0.0 0.00 0.00 0.00 71 1017.9
20260901133038 83 201 0.0 0.0 0.00 0.00 0.00 71 1018.0
20260901132533 83 201 0.0 0.0 0.00 0.00 0.00 72 1017.9
20260901132032 82 201 0.0 0.0 0.00 0.00 0.00 72 1017.8
20260901131526 82 201 0.0 0.0 0.00 0.00 0.00 73 1017.8
20260901131017 82 198 0.0 0.0 0.00 0.00 0.00 73 1017.6
20260901130516 81 198 0.0 0.0 0.00 0.00 0.00 73 1017.8
20260901130009 81 198 0.0 0.0 0.00 0.00 0.00 74 1017.8
20260901125508 80 196 0.0 0.0 0.00 0.00 0.00 75 1017.8
20260901125003 80 196 0.0 0.0 0.00 0.00 0.00 75 1017.5
20260901124458 79 203 0.0 0.0 0.00 0.00 0.00 76 1017.5
20260901123953 79 202 0.0 0.0 0.00 0.00 0.00 76 1017.3
20260901123448 79 202 0.0 0.0 0.00 0.00 0.00 77 1017.3
20260901122946 78 203 0.0 0.0 0.00 0.00 0.00 77 1017.3
20260901122445 78 203 0.0 0.0 0.00 0.00 0.00 77 1017.2
20260901121945 78 203 0.0 0.0 0.00 0.00 0.00 77 1017.2
20260901121439 78 203 0.0 0.0 0.00 0.00 0.00 77 1017.1
20260901120935 78 203 0.0 0.0 0.00 0.00 0.00 76 1017.0
20260901120429 79 203 0.0 0.0 0.00 0.00 0.00 76 1016.8
20260901115925 79 203 0.0 0.0 0.00 0.00 0.00 76 1016.8
20260901115424 79 203 0.0 0.0 0.00 0.00 0.00 75 1016.8
20260901114923 79 203 0.0 0.0 0.00 0.00 0.00 75 1016.7
20260901114418 79 203 0.0 0.0 0.00 0.00 0.00 75 1016.5
20260901113916 79 203 0.0 0.0 0.00 0.00 0.00 75 1016.7
20260901113416 79 203 0.0 0.0 0.00 0.00 0.00 74 1016.7
20260901112911 79 203 0.0 0.0 0.00 0.00 0.00 74 1016.7
20260901112406 79 203 0.0 0.0 0.00 0.00 0.00 74 1016.5
20260901111900 80 203 0.0 0.0 0.00 0.00 0.00 74 1016.6
20260901111358 80 203 0.0 0.0 0.00 0.00 0.00 73 1016.5
20260901110857 80 202 0.0 0.0 0.00 0.00 0.00 73 1016.6
20260901110353 80 203 0.0 0.0 0.00 0.00 0.00 73 1016.6
20260901105848 80 202 0.0 0.0 0.00 0.00 0.00 72 1016.6
20260901105343 80 202 0.0 0.0 0.00 0.00 0.00 72 1016.4
20260901104840 80 201 0.0 0.0 0.00 0.00 0.00 71 1016.5
20260901104335 80 201 0.0 0.0 0.00 0.00 0.00 71 1016.4
20260901103830 80 201 0.0 0.0 0.00 0.00 0.00 70 1016.4
20260901103324 81 201 0.0 0.0 0.00 0.00 0.00 70 1016.6
20260901102819 81 201 0.0 0.0 0.00 0.00 0.00 70 1016.5
20260901102314 81 200 0.0 0.0 0.00 0.00 0.00 69 1016.6
20260901101809 81 200 0.0 0.0 0.00 0.00 0.00 68 1016.5
20260901101304 82 199 0.0 0.0 0.00 0.00 0.00 68 1016.6
20260901100803 82 202 0.0 0.0 0.00 0.00 0.00 68 1016.6
20260901100257 81 199 0.0 0.0 0.00 0.00 0.00 68 1016.5
20260901095756 82 193 0.0 0.0 0.00 0.00 0.00 68 1016.6
20260901095253 82 199 0.0 0.0 0.00 0.00 0.00 67 1016.6